AU298 Weather Reports


time (UTC)temp
F
wind
direction
speed
knots
gust
knots
rain 1hr
in
rain 24hr
in
rain mn
in
humidity
%
barometer
mb
20260505051012 33 313 3.5 0.9 0.00 0.22 0.00 80 1004.6
20260505050511 33 323 7.0 0.9 0.00 0.22 0.00 79 1004.5
20260505041512 34 257 1.7 0.9 0.01 0.22 0.22 84 1004.0
20260505041011 34 340 0.9 0.9 0.01 0.22 0.22 84 1004.0
20260505040012 34 302 5.2 0.9 0.01 0.22 0.22 87 1003.9
20260505035011 34 301 1.7 0.9 0.02 0.22 0.22 87 1003.9
20260505034511 34 290 2.6 0.9 0.02 0.22 0.22 88 1004.0
20260505034011 34 321 2.6 0.9 0.02 0.22 0.22 88 1004.0
20260505033511 34 302 1.7 0.9 0.02 0.22 0.22 88 1004.0
20260505033011 34 333 2.6 0.9 0.02 0.21 0.21 88 1003.9
20260505032511 34 321 0.9 0.0 0.02 0.21 0.21 88 1003.9
20260505031011 34 310 2.6 0.9 0.02 0.21 0.21 87 1003.9
20260505030511 34 277 3.5 0.9 0.02 0.21 0.21 87 1003.9
20260505030012 34 304 1.7 0.9 0.02 0.21 0.21 87 1003.8
20260505025511 35 335 2.6 0.9 0.01 0.20 0.20 88 1003.8
20260505025011 34 304 1.7 0.9 0.01 0.20 0.20 88 1003.7
20260505024012 34 313 2.6 0.9 0.01 0.20 0.20 88 1003.5
20260505023511 34 318 0.9 0.9 0.01 0.20 0.20 88 1003.5
20260505023011 34 319 3.5 0.9 0.00 0.19 0.19 88 1003.4
20260505022511 34 329 3.5 0.9 0.00 0.19 0.19 88 1003.3
20260505022011 34 305 1.7 0.9 0.00 0.19 0.19 88 1003.2
20260505021511 34 306 2.6 0.9 0.00 0.19 0.19 88 1003.2
20260505021012 34 292 4.3 0.9 0.01 0.19 0.19 87 1003.1
20260505020511 34 315 5.2 0.9 0.01 0.19 0.19 87 1003.0
20260505020011 34 323 4.3 0.9 0.02 0.19 0.19 87 1002.9
20260505015511 34 316 3.5 0.9 0.02 0.19 0.19 87 1002.8
20260505014512 34 350 3.5 0.9 0.02 0.19 0.19 87 1002.7
20260505014011 35 323 5.2 0.9 0.02 0.19 0.19 87 1002.7
20260505013511 35 326 3.5 0.9 0.02 0.19 0.19 86 1002.6
20260505013011 35 342 4.3 0.9 0.02 0.19 0.19 86 1002.3
20260505012512 35 348 4.3 0.9 0.02 0.19 0.19 86 1003.3
20260505012011 35 306 4.3 0.9 0.02 0.19 0.19 86 1003.3
20260505011511 35 347 3.5 0.9 0.02 0.19 0.19 86 1003.2
20260505011012 35 319 3.5 0.9 0.01 0.18 0.18 86 1003.1
20260505010511 35 343 5.2 1.7 0.01 0.18 0.18 85 1003.1
20260505005512 36 279 8.7 1.7 0.00 0.17 0.17 81 1003.0
20260505005011 37 335 4.3 0.9 0.00 0.17 0.17 81 1002.8
20260505004511 37 259 0.9 0.9 0.00 0.17 0.17 82 1002.7
20260505004011 37 304 7.8 0.9 0.00 0.17 0.17 83 1002.5
20260505003511 36 295 3.5 1.7 0.00 0.17 0.17 83 1002.5
20260505003011 36 311 6.1 1.7 0.00 0.17 0.17 82 1002.4
20260505002011 37 338 3.5 1.7 0.00 0.17 0.17 79 1002.5
20260505001011 38 263 4.3 1.7 0.01 0.17 0.17 79 1002.4
20260505000511 38 323 7.8 1.7 0.01 0.17 0.17 78 1002.2
20260505000011 38 297 5.2 1.7 0.01 0.17 0.17 80 1002.2
20260504235511 38 278 3.5 1.7 0.01 0.17 0.17 80 1002.2
20260504235012 38 235 7.0 0.9 0.01 0.17 0.17 82 1002.0
20260504234511 37 315 2.6 0.9 0.01 0.17 0.17 83 1002.0
20260504233512 36 276 1.7 0.9 0.01 0.17 0.17 86 1001.9
20260504233012 36 299 3.5 0.9 0.02 0.17 0.17 86 1002.0
20260504232011 35 283 6.1 2.6 0.02 0.17 0.17 86 1002.0
20260504231511 35 297 8.7 2.6 0.01 0.16 0.16 84 1001.9
20260504231011 39 309 7.8 1.7 0.01 0.16 0.16 74 1001.8
20260504230511 39 229 5.2 1.7 0.01 0.16 0.16 74 1001.5
20260504230011 39 292 7.8 1.7 0.01 0.16 0.16 76 1001.4
20260504225011 39 316 5.2 1.7 0.01 0.16 0.16 77 1001.4
20260504224511 38 330 6.1 1.7 0.01 0.16 0.16 78 1001.4
20260504224012 38 277 7.8 1.7 0.01 0.16 0.16 80 1001.4
20260504223011 39 279 5.2 1.7 0.00 0.15 0.15 76 1001.3
20260504222511 39 276 10.4 1.7 0.00 0.15 0.15 76 1001.0
20260504222011 39 302 11.3 1.7 0.00 0.15 0.15 76 1000.9
20260504221511 38 303 7.0 1.7 0.01 0.15 0.15 76 1000.9
20260504221011 39 295 11.3 1.7 0.01 0.15 0.15 74 1000.8
20260504220512 40 282 10.4 1.7 0.01 0.15 0.15 74 1000.6
20260504215511 40 328 7.8 2.6 0.01 0.15 0.15 73 1000.3
20260504215011 41 238 13.9 1.7 0.01 0.15 0.15 72 1000.3
20260504214511 41 258 9.6 1.7 0.01 0.15 0.15 71 1000.2
20260504214011 41 300 4.3 1.7 0.01 0.15 0.15 72 1000.1
20260504213511 41 274 3.5 1.7 0.01 0.15 0.15 73 1000.1
20260504213012 41 266 4.3 1.7 0.01 0.15 0.15 75 1000.1
20260504212511 40 321 5.2 1.7 0.01 0.15 0.15 75 1000.0
20260504212011 39 236 10.4 1.7 0.01 0.15 0.15 78 1000.1
20260504211511 41 245 17.4 1.7 0.00 0.14 0.14 71 999.9
20260504211011 43 275 1.7 1.7 0.00 0.14 0.14 66 999.7
20260504205511 41 283 6.1 1.7 0.00 0.14 0.14 72 999.6
20260504205011 41 295 11.3 2.6 0.00 0.14 0.14 73 999.6
20260504203511 42 18 5.2 1.7 0.00 0.14 0.14 68 999.2
20260504203011 44 333 11.3 1.7 0.00 0.14 0.14 63 999.2
20260504202511 43 252 10.4 1.7 0.00 0.14 0.14 64 999.1
20260504202011 42 327 6.1 1.7 0.00 0.14 0.14 65 999.1
20260504201511 42 292 10.4 2.6 0.00 0.14 0.14 66 999.0
20260504201011 42 44 6.1 1.7 0.00 0.14 0.14 67 998.9
20260504200011 44 274 4.3 1.7 0.00 0.14 0.14 63 998.7
20260504195011 43 335 7.0 1.7 0.00 0.14 0.14 67 998.6
20260504194511 44 260 4.3 1.7 0.00 0.14 0.14 67 998.5
20260504194011 43 282 14.8 2.6 0.00 0.14 0.14 64 998.4
20260504193511 43 338 12.2 2.6 0.00 0.14 0.14 63 998.2
20260504193011 43 20 15.6 2.6 0.00 0.14 0.14 63 998.2
20260504192511 44 330 7.8 1.7 0.00 0.14 0.14 64 998.1
20260504192011 43 272 9.6 1.7 0.00 0.14 0.14 65 998.1
20260504191511 44 297 15.6 1.7 0.00 0.14 0.14 69 998.2
20260504190512 41 284 7.0 1.7 0.00 0.14 0.14 79 998.1
20260504190011 40 319 10.4 1.7 0.00 0.14 0.14 79 998.0
20260504185510 41 307 7.8 1.7 0.00 0.14 0.14 78 997.9
20260504185011 41 265 7.0 1.7 0.00 0.14 0.14 76 997.8
20260504184512 40 294 13.9 1.7 0.00 0.14 0.14 76 997.8
20260504184011 41 311 13.9 1.7 0.00 0.14 0.14 73 997.8
20260504183511 42 309 8.7 1.7 0.00 0.14 0.14 71 997.6
20260504183011 42 311 5.2 1.7 0.00 0.14 0.14 74 997.5
20260504182510 41 310 9.6 1.7 0.00 0.14 0.14 78 997.5
20260504182011 40 20 11.3 1.7 0.00 0.14 0.14 78 997.3
20260504181511 41 224 9.6 1.7 0.00 0.14 0.14 74 997.1
20260504181012 42 269 6.1 1.7 0.00 0.14 0.14 74 997.0
20260504180511 41 275 13.9 1.7 0.00 0.14 0.14 74 997.0
20260504180011 41 264 4.3 1.7 0.00 0.14 0.14 76 996.8
20260504175511 42 310 8.7 1.7 0.00 0.14 0.14 76 996.9
20260504175011 42 265 9.6 1.7 0.00 0.14 0.14 73 996.7
20260504174510 42 301 2.6 1.7 0.00 0.14 0.14 73 996.5
20260504174011 42 265 7.8 2.6 0.00 0.14 0.14 73 996.4
20260504173511 42 292 17.4 2.6 0.00 0.14 0.14 74 996.6
20260504173011 43 329 13.9 2.6 0.00 0.14 0.14 72 996.4
20260504172511 43 276 3.5 2.6 0.00 0.14 0.14 73 996.3
20260504172012 43 294 8.7 2.6 0.00 0.14 0.14 71 996.3
20260504171511 42 300 6.1 1.7 0.01 0.14 0.14 72 996.3
20260504170511 41 324 12.2 1.7 0.01 0.14 0.14 78 996.4
20260504151011 41 299 11.3 1.7 0.00 0.13 0.13 80 994.6
20260504150511 41 344 6.1 1.7 0.00 0.13 0.13 82 994.5
20260504141011 44 335 2.6 0.9 0.00 0.13 0.13 83 993.3
20260504140511 43 293 7.8 1.7 0.00 0.13 0.13 83 993.3
20260504130511 44 300 5.2 0.9 0.00 0.13 0.13 86 992.7
20260504110510 43 313 7.8 0.9 0.13 0.13 0.13 87 992.1
20260504081510 57 179 3.5 1.7 0.00 0.00 0.00 44 990.4
20260504081010 57 240 5.2 0.9 0.00 0.00 0.00 44 990.7
20260504080510 57 240 0.9 1.7 0.00 0.00 0.00 44 990.9